Tracking 23114 objects as of 16-May-2021
HD Live streaming from Space Station
objects crossing your sky now

STARLINK-2450

Track STARLINK-2450 now!
10-day predictions
STARLINK-2450 is classified as:


NORAD ID: 48113
Int'l Code: 2021-027X
Perigee: 410.5 km
Apogee: 412.1 km
Inclination: 53.0 °
Period: 92.6 minutes
Semi major axis: 6782 km
RCS: Unknown
Launch date: April 7, 2021
Source: United States (US)
Launch site: AIR FORCE EASTERN TEST RANGE (AFETR)
aabbcc
Your satellite tracking list
Your tracking list is empty




NASA's NSSDC Master Catalog

Two Line Element Set (TLE):
1 48113U 21027X   21136.58334491 -.01176594  00000-0 -19660-1 0  9997
2 48113  53.0435 147.5290 0001164  90.3620 177.5727 15.54314129  1810
Source of the keplerian elements: AFSPC